Theta_e
299 298 296 297 298 298 298 298 299 300 300 302 303 303 304 305 307 307 306 308 306 303 303 303 302 305 303 304 303 303 301 302 294 293 295 295 292 292 294 296 296 296 298
299 298 297 297 297 297 297 298 299 299 300 301 302 304 304 305 307 308 306 307 308 304 303 303 303 304 302 302 302 301 301 301 298 293 293 291 291 291 292 293 294 295 296
297 297 296 296 297 297 297 298 298 299 299 300 302 303 303 305 308 308 307 307 308 306 304 304 303 302 300 301 301 300 300 299 298 295 291 291 291 291 290 289 289 290 290
297 296 296 296 297 297 297 298 298 298 298 299 300 302 303 305 308 307 306 306 307 308 307 305 303 303 301 299 298 299 299 297 296 294 291 289 289 289 290 287 286 286 286
295 295 295 296 296 296 297 297 297 297 298 299 299 301 302 305 306 306 305 305 306 307 307 307 305 299 296 299 300 299 299 296 295 293 290 288 286 286 286 286 285 285 285
295 295 295 295 296 296 296 296 296 296 297 298 298 299 301 303 299 299 301 303 305 306 305 304 302 293 296 296 296 297 299 297 295 294 292 291 289 288 286 286 285 285 286
294 293 293 294 294 294 295 295 295 295 296 297 297 298 299 301 297 297 297 302 303 305 304 301 299 297 295 298 295 295 295 296 298 298 294 294 291 291 289 286 286 286 286
293 293 293 293 293 292 293 295 294 295 296 296 296 297 298 299 295 296 294 302 302 302 302 300 297 297 297 297 297 296 296 296 296 297 298 296 295 293 292 291 289 286 285
293 293 293 293 292 292 293 293 293 293 294 295 295 296 296 297 292 296 297 302 299 300 300 300 299 297 294 294 296 295 293 293 295 296 297 296 294 294 292 288 286 286 285
293 293 293 293 293 293 293 292 291 293 293 292 293 296 292 296 292 294 298 299 299 297 298 298 289 298 293 294 296 292 290 291 290 290 291 293 293 293 291 293 289 287 286
290 290 292 293 293 294 293 289 291 290 290 290 290 291 292 294 294 294 296 298 298 293 292 289 291 294 293 294 295 293 293 291 290 289 288 288 288 289 289 290 290 291 287
290 289 290 290 291 292 291 288 289 289 289 288 289 288 286 290 291 293 294 296 297 294 291 289 290 293 293 294 293 294 293 290 288 287 287 286 287 287 287 288 286 286 286
289 289 288 288 288 289 290 289 288 288 289 289 289 290 287 286 288 292 294 294 294 290 287 290 292 293 293 293 293 293 288 288 287 287 288 289 288 287 286 286 285 286 286
289 288 287 288 287 287 288 289 290 289 290 289 289 290 289 287 287 287 287 289 289 288 289 288 289 289 290 289 287 290 288 289 289 289 288 286 286 286 286 285 285 285 285
288 287 287 288 288 287 287 288 289 289 291 290 291 291 290 288 289 290 289 287 288 288 286 286 286 286 286 286 286 287 287 287 288 287 287 286 285 285 285 285 285 285 285
287 287 288 287 287 287 287 287 291 290 292 293 293 292 286 290 290 291 291 291 291 290 286 286 286 286 287 287 286 286 286 286 286 286 286 286 286 286 285 285 285 285 285
288 287 288 288 288 288 288 288 286 288 290 291 291 291 291 289 291 291 292 291 291 290 286 286 286 286 286 285 286 285 285 285 286 286 286 286 286 285 285 285 285 285 285
288 288 289 289 289 289 288 288 287 286 286 286 289 289 290 291 291 291 291 290 286 287 285 286 286 286 285 285 285 285 285 285 285 285 285 286 285 285 285 285 285 285 285
288 288 289 289 289 289 289 288 288 287 286 286 286 288 288 290 291 290 290 286 286 285 285 285 285 285 285 285 285 285 285 285 285 285 285 285 285 285 285 285 285 285 285
288 288 288 288 288 288 288 287 287 286 286 286 286 286 286 287 286 285 285 286 286 285 285 285 285 285 285 285 285 285 285 285 285 285 285 285 285 285 285 285 285 285 285
287 287 287 288 287 287 287 287 287 286 286 286 285 286 287 287 285 285 285 285 285 285 285 285 285 285 285 285 285 285 285 285 285 285 285 285 285 285 285 285 285 285 285
287 287 287 287 287 287 287 287 286 286 285 284 284 286 287 285 284 282 281 280 280 281 284 283 282 281 282 283 285 285 284 284 284 285 285 285 285 285 285 285 285 285 285
287 286 286 286 287 286 286 285 285 284 284 284 284 282 282 281 280 278 277 276 275 275 276 278 277 276 277 277 277 278 278 277 278 280 282 284 284 284 285 285 284 284 284
286 286 286 286 285 285 284 283 282 282 281 280 278 278 277 276 274 272 271 270 270 269 269 270 271 272 270 267 267 267 269 271 273 274 275 276 278 282 283 284 284 284 284
286 285 285 284 284 283 282 281 280 279 276 276 274 272 272 271 269 268 268 268 267 267 266 265 265 265 264 264 262 260 263 263 262 262 261 263 264 265 268 271 279 281 281
284 283 283 283 280 280 278 277 276 275 274 272 271 270 269 268 267 267 266 265 264 264 262 261 262 262 261 261 261 263 265 268 263 262 258 259 260 260 261 263 266 270 273
Wind_Speed
11 9 9 7 7 7 6 6 6 6 6 6 5 5 5 5 3 3 3 3 5 4 4 6 7 5 4 4 4 5 6 6 8 3 2 3 5 5 6 6 7 7 6
10 10 11 9 8 8 7 7 7 7 6 7 6 5 5 5 5 5 5 4 5 5 5 6 6 6 6 4 4 5 7 5 5 10 2 2 4 4 5 6 5 5 5
11 11 9 9 9 8 7 7 7 7 7 6 6 6 5 5 4 4 4 4 5 5 5 6 6 7 6 4 4 6 6 6 5 5 4 2 2 1 4 4 4 4 5
10 11 11 11 10 9 8 9 9 7 7 7 6 6 6 5 5 5 5 4 4 4 6 6 6 5 6 7 5 6 7 7 7 5 4 2 2 1 3 2 2 3 2
9 9 10 9 8 8 8 8 7 7 7 6 6 6 6 5 4 5 5 5 5 5 5 5 5 6 10 7 7 7 9 7 7 6 3 2 2 2 3 2 2 1 2
10 11 9 8 8 8 7 7 7 7 7 6 6 6 6 4 9 10 8 5 5 5 5 5 5 6 9 12 8 11 12 12 8 6 5 5 4 3 3 4 3 3 3
9 7 9 9 9 8 7 7 7 7 6 7 6 6 6 5 7 9 10 5 5 4 5 5 4 4 7 6 7 8 6 6 9 11 10 9 8 9 7 6 4 2 2
9 9 9 10 9 8 8 9 7 6 7 6 7 7 6 5 10 9 10 6 6 6 5 5 6 6 6 8 7 6 6 5 5 4 6 5 5 9 8 4 3 4 2
11 11 11 11 10 10 11 9 6 6 5 5 4 6 6 5 11 11 8 5 5 6 5 6 6 6 8 10 7 7 6 6 5 7 5 9 13 17 13 8 5 4 3
13 13 12 12 12 13 11 9 5 5 6 5 6 6 6 5 9 11 7 4 5 4 5 5 7 7 12 13 7 7 6 5 6 4 3 4 10 13 20 12 8 7 3
9 9 11 12 13 13 11 6 8 7 7 7 7 6 7 6 7 11 8 5 4 2 3 3 4 9 11 12 9 7 7 6 6 5 3 3 3 5 7 6 7 6 4
12 12 11 10 9 9 11 7 7 9 8 6 6 3 1 4 7 11 11 6 6 5 5 3 2 6 8 10 8 7 9 6 4 4 3 3 5 6 5 5 4 3 2
12 13 11 9 8 9 11 10 7 8 8 7 6 5 3 2 2 9 7 8 7 3 2 4 5 6 6 6 9 9 8 4 4 3 5 6 4 3 4 3 2 4 3
13 11 10 12 9 8 6 8 9 9 8 8 8 7 5 4 4 2 2 1 4 3 4 2 3 4 4 4 3 6 4 5 6 5 3 2 3 3 4 3 3 3 2
11 11 11 9 11 9 6 8 8 6 10 11 9 10 9 7 6 8 7 3 3 3 4 1 2 2 1 1 1 3 3 4 4 3 3 3 3 3 3 3 2 3 4
11 10 10 10 9 8 8 5 5 6 8 11 9 9 2 6 11 12 11 10 9 12 2 2 2 3 3 3 3 2 2 4 2 3 3 3 3 4 3 2 2 4 5
12 12 10 10 10 11 9 9 9 4 8 10 14 12 12 10 12 12 11 10 10 8 2 1 2 3 2 2 3 2 3 3 3 3 3 3 3 3 4 3 3 3 3
11 14 11 10 11 11 11 10 8 9 8 4 9 12 14 14 12 12 12 10 4 1 1 2 3 3 3 3 3 2 2 2 2 2 2 3 3 2 2 2 3 3 3
11 10 11 11 10 12 11 11 10 9 8 7 6 6 9 14 14 13 9 3 4 4 3 3 2 3 3 3 3 3 4 3 2 2 2 2 3 2 1 2 3 5 4
10 13 12 11 11 12 12 12 11 11 10 9 7 7 5 6 5 3 4 5 5 5 4 4 3 3 3 4 4 3 4 4 3 3 2 2 2 2 2 2 3 2 3
8 11 12 10 11 11 11 12 12 11 11 10 8 8 11 7 7 6 6 5 6 5 4 4 4 3 3 3 3 4 4 4 3 3 3 2 2 1 2 1 2 2 2
11 11 11 10 11 11 11 10 11 10 10 10 9 8 18 8 8 8 6 6 6 5 4 5 4 4 4 4 3 4 4 4 4 3 3 3 2 1 0 0 1 1 2
11 13 12 11 11 14 12 11 11 11 10 10 9 8 8 8 9 8 7 6 6 6 5 5 4 4 5 5 5 5 5 4 4 4 4 3 3 2 1 1 0 0 1
12 13 13 13 11 11 11 12 11 13 12 10 9 7 7 9 9 9 7 6 6 6 6 5 4 5 5 4 4 4 4 3 4 4 5 4 4 5 3 3 3 3 2
11 12 12 13 13 12 13 12 11 11 10 9 9 7 8 9 8 7 7 6 6 6 6 5 4 5 5 6 5 4 4 5 4 4 3 4 3 3 2 1 3 4 6
11 12 11 11 11 12 12 12 11 11 10 9 9 8 8 8 7 6 6 7 6 6 6 4 5 5 5 4 3 4 5 3 5 6 4 4 3 3 2 1 2 1 4
Wind_Direction
160 155 150 157 158 151 159 162 165 157 167 170 170 163 177 164 176 147 146 120 112 111 104 113 109 104 88 68 74 84 84 99 118 90 90 30 32 57 47 56 53 58 49
159 156 161 158 158 162 163 164 161 169 169 168 170 164 170 173 181 167 163 159 130 134 134 117 121 116 102 94 84 94 108 96 129 130 114 93 64 24 53 51 40 48 61
153 158 160 162 162 169 163 161 164 161 171 169 169 169 177 181 161 170 154 162 133 147 152 140 141 133 125 120 111 110 116 111 112 132 114 92 100 83 70 49 39 35 37
162 164 165 168 171 170 165 165 166 168 166 173 177 171 179 182 156 161 152 163 154 156 155 154 154 147 135 135 125 129 129 121 120 120 97 96 98 63 88 117 82 38 42
159 168 174 170 164 157 164 168 163 164 171 167 162 176 183 182 160 154 156 173 167 165 162 154 160 146 144 151 143 146 142 134 140 143 133 128 153 157 179 149 98 76 357
172 176 166 157 160 169 165 163 161 164 165 164 174 177 182 186 168 155 152 173 177 169 170 148 140 152 161 161 153 162 168 156 161 165 169 193 188 161 136 156 121 145 221
169 162 158 159 165 169 156 151 163 173 161 172 176 171 184 186 170 163 158 164 171 177 166 161 145 152 153 157 154 159 165 180 172 177 188 198 181 183 155 163 167 155 184
173 170 166 164 167 153 158 171 165 164 176 173 175 181 180 190 185 180 169 165 166 177 169 169 168 168 171 157 157 162 177 186 179 188 192 182 161 152 177 164 150 108 94
184 179 173 170 166 168 177 173 167 155 164 172 168 168 178 193 188 184 165 162 168 173 174 172 173 171 167 160 158 164 179 201 190 188 189 161 158 163 159 132 163 150 208
187 184 174 172 173 175 176 171 150 158 164 152 173 180 183 183 193 186 180 152 174 180 172 182 189 183 171 175 172 167 196 205 177 157 125 152 167 176 172 188 165 187 146
167 163 174 177 177 178 170 154 155 151 146 167 178 183 181 178 189 194 188 163 179 166 184 192 192 191 180 182 178 179 198 163 172 156 152 157 165 176 197 202 183 188 171
159 166 174 175 173 170 163 151 153 155 164 164 159 167 180 171 184 197 195 170 169 170 200 213 192 178 180 191 182 181 159 141 131 144 158 186 193 199 202 200 173 157 133
162 172 170 162 161 162 164 162 154 157 161 167 173 179 168 142 157 194 186 182 185 156 162 182 177 186 178 182 200 181 155 151 148 158 205 215 202 160 133 144 127 149 138
171 170 159 163 161 160 160 169 168 171 166 169 176 183 172 165 164 139 165 159 177 126 147 123 147 135 147 138 133 174 174 175 179 189 190 154 122 149 169 149 173 159 177
167 162 162 164 166 162 165 172 177 185 179 177 183 183 173 184 192 162 164 174 193 167 111 63 98 114 134 141 130 161 166 165 189 171 150 154 151 153 165 149 145 157 207
163 164 166 161 157 156 151 122 73 129 152 183 163 171 94 131 147 166 176 185 181 160 109 169 173 175 182 176 175 152 160 181 179 147 153 166 168 181 171 159 153 192 213
171 163 158 156 159 155 156 158 148 110 148 178 176 163 169 152 156 156 167 168 169 157 137 176 165 161 154 144 160 157 164 178 149 172 161 161 153 161 172 181 186 197 229
162 164 161 163 160 158 159 159 154 156 149 136 165 162 148 143 147 146 140 122 129 73 92 146 138 140 139 139 147 124 114 118 117 120 127 154 167 155 158 165 180 195 205
160 168 165 160 161 158 152 150 151 146 138 132 128 113 129 140 135 134 137 114 134 117 110 94 91 108 105 113 114 105 111 113 107 116 128 147 160 160 160 170 183 200 195
166 164 167 161 155 157 155 154 152 149 144 145 145 142 133 121 129 114 107 118 117 110 108 115 105 90 99 105 100 103 100 98 107 105 108 124 144 150 156 178 182 188 209
167 157 162 159 162 162 159 160 156 152 152 152 144 148 156 143 131 125 119 118 114 110 110 110 98 86 79 76 91 96 97 94 87 95 108 111 126 141 173 182 176 177 209
161 161 156 164 155 154 156 152 149 148 151 145 144 147 138 132 122 114 109 99 85 76 71 81 68 58 44 46 52 78 81 74 59 44 56 61 64 77 99 152 172 170 221
164 160 156 157 159 152 149 150 147 144 142 142 144 139 140 128 114 109 107 90 80 73 55 69 74 62 47 44 38 44 68 48 24 26 38 28 23 32 33 2 350 281 249
166 160 158 157 156 154 148 145 141 140 136 137 134 132 124 109 106 109 105 100 95 84 76 75 73 82 76 62 52 49 49 37 26 36 31 30 12 1 1 357 346 326 293
164 159 161 156 152 149 141 137 138 135 128 131 123 117 107 105 109 117 115 109 107 102 94 94 85 94 96 93 80 68 57 70 80 72 74 87 73 24 344 299 333 319 307
161 157 152 150 141 138 135 133 134 126 128 126 116 112 113 115 116 112 105 103 103 95 96 80 83 85 79 65 51 52 31 55 70 58 58 66 65 22 32 20 350 344 315